When you browse on this site, cookies collect data to enhance your experience and personalize the content and advertising you see.
Visit our Privacy Policy to learn more. By continuing to use the site, you agree to this use of cookies and data.
  • In Latvia
  • List of Countries
  • For 7 days
  • Water Temperature
  • Weather Map
  • Weather Widgets
  • user-avatar
    Login

    Hourly Weather Zaranj

    Today, 1 April, Wednesday

    Time Temperature Precipitation Wind Pressure Humidity
    00:00 +22°C° 0 mm 4 mps 717 mmHg 46%
    01:00 +21°C° 0 mm 4 mps 717 mmHg 46%
    02:00 +20°C° 0 mm 5 mps 717 mmHg 47%
    03:00 +19°C° 0 mm 5 mps 718 mmHg 48%
    04:00 +17°C° 0 mm 6 mps 718 mmHg 51%
    05:00 +17°C° 0 mm 5 mps 718 mmHg 51%
    06:00 +17°C° 0 mm 5 mps 719 mmHg 52%
    07:00 +18°C° 0 mm 4 mps 720 mmHg 52%
    08:00 +20°C° 0 mm 5 mps 720 mmHg 44%
    09:00 +21°C° 0 mm 5 mps 721 mmHg 36%
    10:00 +23°C° 0 mm 6 mps 722 mmHg 28%
    11:00 +23°C° 0 mm 5 mps 722 mmHg 26%
    12:00 +25°C° 0 mm 5 mps 722 mmHg 24%
    13:00 +25°C° 0 mm 4 mps 721 mmHg 22%
    14:00 +26°C° 0 mm 4 mps 721 mmHg 21%
    15:00 +26°C° 0 mm 3 mps 720 mmHg 20%
    16:00 +26°C° 0 mm 2 mps 720 mmHg 19%
    17:00 +25°C° 0 mm 2 mps 720 mmHg 22%
    18:00 +25°C° 0 mm 2 mps 720 mmHg 26%
    19:00 +24°C° 0 mm 2 mps 720 mmHg 29%
    20:00 +23°C° 0 mm 2 mps 720 mmHg 30%
    21:00 +23°C° 0 mm 2 mps 720 mmHg 31%
    22:00 +21°C° 0 mm 2 mps 721 mmHg 32%
    23:00 +20°C° 0 mm 2 mps 720 mmHg 34%

    Tomorrow, 2 April, Thursday

    Time Temperature Precipitation Wind Pressure Humidity
    00:00 +21°C° 0 mm 1 mps 720 mmHg 36%
    01:00 +20°C° 0 mm 1 mps 719 mmHg 38%
    02:00 +20°C° 0 mm 1 mps 719 mmHg 37%
    03:00 +20°C° 0 mm 1 mps 719 mmHg 36%
    04:00 +19°C° 0 mm 1 mps 718 mmHg 35%
    05:00 +20°C° 0 mm 1 mps 719 mmHg 36%
    06:00 +20°C° 0 mm 1 mps 719 mmHg 36%
    07:00 +20°C° 0 mm 1 mps 720 mmHg 37%
    08:00 +22°C° 0 mm 1 mps 720 mmHg 31%
    09:00 +23°C° 0 mm 1 mps 720 mmHg 26%
    10:00 +25°C° 0 mm 1 mps 720 mmHg 20%
    11:00 +26°C° 0 mm 2 mps 719 mmHg 19%
    12:00 +27°C° 0 mm 2 mps 719 mmHg 18%
    13:00 +28°C° 0 mm 3 mps 718 mmHg 17%
    14:00 +29°C° 0 mm 3 mps 718 mmHg 17%
    15:00 +29°C° 0 mm 3 mps 717 mmHg 16%
    16:00 +30°C° 0 mm 3 mps 717 mmHg 16%
    17:00 +29°C° 0 mm 3 mps 717 mmHg 19%
    18:00 +28°C° 0 mm 3 mps 717 mmHg 21%
    19:00 +27°C° 0 mm 4 mps 717 mmHg 24%
    20:00 +26°C° 0 mm 4 mps 717 mmHg 25%
    21:00 +25°C° 0 mm 4 mps 717 mmHg 27%
    22:00 +25°C° 0 mm 4 mps 717 mmHg 28%
    23:00 +24°C° 0 mm 3 mps 717 mmHg 30%

    Day after tomorrow, 3 April, Friday

    Time Temperature Precipitation Wind Pressure Humidity
    00:00 +22°C° 0 mm 3 mps 717 mmHg 31%
    01:00 +23°C° 0 mm 2 mps 717 mmHg 33%
    02:00 +21°C° 0 mm 2 mps 717 mmHg 33%
    03:00 +21°C° 0 mm 2 mps 717 mmHg 33%
    04:00 +21°C° 0 mm 3 mps 716 mmHg 33%
    05:00 +21°C° 0 mm 3 mps 717 mmHg 33%
    06:00 +21°C° 0 mm 3 mps 717 mmHg 34%
    07:00 +21°C° 0 mm 3 mps 718 mmHg 34%
    08:00 +24°C° 0 mm 3 mps 718 mmHg 30%
    09:00 +26°C° 0 mm 2 mps 718 mmHg 25%
    10:00 +27°C° 0 mm 2 mps 718 mmHg 21%
    11:00 +28°C° 0 mm 2 mps 718 mmHg 20%
    12:00 +29°C° 0 mm 2 mps 717 mmHg 19%
    13:00 +30°C° 0 mm 1 mps 717 mmHg 18%
    14:00 +31°C° 0 mm 1 mps 716 mmHg 17%
    15:00 +31°C° 0 mm 1 mps 716 mmHg 17%
    16:00 +32°C° 0 mm 1 mps 715 mmHg 16%
    17:00 +31°C° 0 mm 1 mps 715 mmHg 20%
    18:00 +29°C° 0 mm 1 mps 715 mmHg 24%
    19:00 +28°C° 0 mm 2 mps 715 mmHg 28%
    20:00 +27°C° 0 mm 2 mps 716 mmHg 30%
    21:00 +27°C° 0 mm 3 mps 716 mmHg 31%
    22:00 +26°C° 0 mm 3 mps 716 mmHg 33%
    23:00 +25°C° 0 mm 2 mps 716 mmHg 36%

    4 April, Saturday

    Time Temperature Precipitation Wind Pressure Humidity
    00:00 +25°C° 0 mm 2 mps 716 mmHg 39%
    01:00 +24°C° 0 mm 1 mps 716 mmHg 43%
    02:00 +24°C° 0 mm 1 mps 716 mmHg 42%
    03:00 +23°C° 0 mm 2 mps 716 mmHg 41%
    04:00 +23°C° 0 mm 2 mps 716 mmHg 41%
    05:00 +23°C° 0 mm 2 mps 716 mmHg 41%
    06:00 +23°C° 0 mm 2 mps 717 mmHg 42%
    07:00 +24°C° 0 mm 1 mps 717 mmHg 42%
    08:00 +26°C° 0 mm 3 mps 718 mmHg 36%
    09:00 +28°C° 0 mm 4 mps 718 mmHg 29%
    10:00 +30°C° 0 mm 5 mps 718 mmHg 22%
    11:00 +32°C° 0 mm 5 mps 718 mmHg 19%
    12:00 +33°C° 0 mm 6 mps 718 mmHg 17%
    13:00 +35°C° 0 mm 7 mps 718 mmHg 14%
    14:00 +35°C° 0 mm 6 mps 717 mmHg 14%
    15:00 +35°C° 0 mm 6 mps 717 mmHg 15%
    16:00 +35°C° 0 mm 5 mps 717 mmHg 15%
    17:00 +33°C° 0 mm 5 mps 717 mmHg 17%
    18:00 +32°C° 0 mm 4 mps 717 mmHg 19%
    19:00 +30°C° 0 mm 3 mps 717 mmHg 21%
    20:00 +29°C° 0 mm 2 mps 717 mmHg 23%
    21:00 +27°C° 0 mm 2 mps 717 mmHg 26%
    22:00 +26°C° 0 mm 1 mps 718 mmHg 28%
    23:00 +26°C° 0 mm 1 mps 717 mmHg 29%

    5 April, Sunday

    Time Temperature Precipitation Wind Pressure Humidity
    00:00 +26°C° 0 mm 2 mps 717 mmHg 29%
    01:00 +25°C° 0 mm 2 mps 717 mmHg 29%
    02:00 +24°C° 0.1 mm 2 mps 717 mmHg 34%
    03:00 +24°C° 0.1 mm 3 mps 717 mmHg 39%
    04:00 +22°C° 0.1 mm 3 mps 717 mmHg 45%
    05:00 +22°C° 0.2 mm 4 mps 717 mmHg 46%
    06:00 +22°C° 0.2 mm 4 mps 718 mmHg 48%
    07:00 +22°C° 0.2 mm 4 mps 718 mmHg 50%
    08:00 +24°C° 0.2 mm 3 mps 718 mmHg 45%
    09:00 +25°C° 0.2 mm 3 mps 718 mmHg 39%
    10:00 +27°C° 0.2 mm 2 mps 718 mmHg 33%
    11:00 +28°C° 0.2 mm 2 mps 718 mmHg 30%
    12:00 +29°C° 0.2 mm 2 mps 717 mmHg 27%
    13:00 +30°C° 0.2 mm 2 mps 717 mmHg 23%
    14:00 +30°C° 0.2 mm 2 mps 716 mmHg 23%
    15:00 +30°C° 0.2 mm 2 mps 715 mmHg 23%
    16:00 +30°C° 0.2 mm 2 mps 714 mmHg 23%
    17:00 +28°C° 0 mm 5 mps 714 mmHg 34%
    18:00 +24°C° 0 mm 8 mps 715 mmHg 46%
    19:00 +21°C° 0 mm 11 mps 715 mmHg 57%
    20:00 +21°C° 0 mm 11 mps 716 mmHg 56%
    21:00 +21°C° 0 mm 11 mps 717 mmHg 56%
    22:00 +21°C° 0 mm 11 mps 718 mmHg 55%
    23:00 +19°C° 0 mm 9 mps 718 mmHg 56%

    6 April, Monday

    Time Temperature Precipitation Wind Pressure Humidity
    00:00 +20°C° 0 mm 7 mps 718 mmHg 58%
    01:00 +19°C° 0 mm 5 mps 719 mmHg 59%
    02:00 +19°C° 0 mm 4 mps 719 mmHg 60%
    03:00 +18°C° 0 mm 3 mps 719 mmHg 62%
    04:00 +18°C° 0 mm 2 mps 719 mmHg 63%
    05:00 +18°C° 0 mm 3 mps 719 mmHg 59%
    06:00 +18°C° 0 mm 4 mps 720 mmHg 56%
    07:00 +19°C° 0 mm 6 mps 720 mmHg 53%
    08:00 +20°C° 0 mm 6 mps 721 mmHg 50%
    09:00 +20°C° 0 mm 7 mps 721 mmHg 47%
    10:00 +21°C° 0 mm 8 mps 721 mmHg 44%
    11:00 +22°C° 0 mm 8 mps 721 mmHg 40%
    12:00 +23°C° 0 mm 7 mps 720 mmHg 36%
    13:00 +24°C° 0 mm 7 mps 720 mmHg 33%
    14:00 +26°C° 0 mm 7 mps 719 mmHg 32%
    15:00 +26°C° 0 mm 7 mps 719 mmHg 32%
    16:00 +26°C° 0 mm 6 mps 718 mmHg 31%
    17:00 +25°C° 0 mm 5 mps 718 mmHg 34%
    18:00 +25°C° 0 mm 3 mps 718 mmHg 36%
    19:00 +24°C° 0 mm 2 mps 718 mmHg 39%
    20:00 +24°C° 0 mm 2 mps 718 mmHg 40%
    21:00 +23°C° 0 mm 2 mps 719 mmHg 42%
    22:00 +23°C° 0 mm 2 mps 719 mmHg 43%
    23:00 +21°C° 0 mm 2 mps 718 mmHg 46%
    Show more